Location: Poughquag
(41.6090°N, 73.6820°W)
Time: 12:51:33
(UTC-04:00)

Tiros 1 despin weight - Pass Details

Date: 06 June 2020
Orbit: 593 x 642 km, 48.2° (Epoch: 07 July)

Event Time Altitude Azimuth Distance (km) Brightness Sun altitude
Rises 14:24:56 0° 297° (WNW) 2,903 ? 63.2°
Reaches altitude 10° 14:27:17 10° 294° (WNW) 1,986 ? 62.8°
Maximum altitude 14:31:48 65° 213° (SSW) 675 ? 62.1°
Drops below altitude 10° 14:36:13 10° 132° (SE) 1,946 ? 61.4°
Sets 14:38:30 0° 129° (SE) 2,839 ? 61.1°
